Home   Weather   Firenze   Past weeks
Flag for Italy

Past Weather in Firenze, Italy — Yesterday and Last 2 Weeks

Now
50 °F

Rain. Fog.


Feels Like: 50 °F
Forecast: 31 / 53 °F
Wind: 2 mph from North

Location: Florence / Peretola

Current Time: Dec 10, 2018 at 4:24:02 pm

Latest Report: Dec 10, 2018 at 3:50 pm


Visibility: N/A

Pressure: 29.98 "Hg

Humidity: 82%

Dew Point: 45 °F

Location of FirenzeLocation

Past Weather in Firenze — Graph

°F

Firenze Temperature Yesterday

Maximum temperature yesterday: 61 °F (at 1:20 pm)
Minimum temperature yesterday: 36 °F (at 1:20 am)
Average temperature yesterday: 47 °F

High & Low Weather Summary for the Past Weeks

 TemperatureHumidityPressure
High64 °F (Dec 4, 2:20 pm)100% (Nov 25, 7:20 pm)30.27 "Hg (Nov 25, 7:20 pm)
Low32 °F (Nov 30, 2:50 am)24% (Dec 8, 1:50 pm)29.50 "Hg (Nov 26, 5:20 am)
Average48 °F84%29.99 "Hg
* Reported Nov 25 2:20 pm — Dec 10 2:50 pm, Firenze. Weather by CustomWeather, © 2018

Note: Actual official high and low records may vary slightly from our data, if they occured in-between our weather recording intervals... More about our weather records

Advertising

Firenze Weather History for the Previous 24 Hours

Scroll right to see more
 ConditionsComfort  
Time TempWeatherWind HumidityBarometerVisibility
2:50 pm
Mon, Dec 10
50 °FFog.3 mph82%29.98 "HgN/A
2:20 pm48 °FPassing clouds.3 mph94%29.98 "HgN/A
1:50 pm48 °FPassing clouds.3 mph94%29.98 "HgN/A
1:20 pm46 °FPassing clouds.2 mph100%29.98 "HgN/A
12:50 pm45 °FFog.2 mph100%29.98 "Hg3 mi
12:20 pm43 °FFog.2 mph100%29.98 "Hg1 mi
11:50 am43 °FQuite cool.3 mph100%29.98 "Hg1 mi
11:20 am43 °FFog.1 mph100%29.98 "Hg0 mi
10:50 am43 °FFog.2 mph100%30.01 "Hg0 mi
10:20 am43 °FFog.1 mph100%30.01 "Hg0 mi
9:50 am43 °FFog.2 mph100%29.98 "Hg0 mi
9:20 am43 °FFog.3 mph100%29.98 "Hg0 mi
8:50 am43 °FFog.2 mph100%29.95 "Hg0 mi
8:20 am43 °FFog.2 mph100%29.95 "Hg0 mi
7:50 am43 °FFog.5 mph100%29.95 "Hg0 mi
7:20 am43 °FFog.1 mph100%29.92 "Hg0 mi
6:50 am43 °FFog.2 mph100%29.92 "Hg0 mi
6:20 am43 °FFog.2 mph100%29.92 "Hg0 mi
5:50 am43 °FFog.2 mph100%29.89 "Hg0 mi
5:20 am43 °FFog.2 mph100%29.92 "Hg0 mi
4:50 am43 °FFog.2 mph100%29.89 "Hg0 mi
4:20 am43 °FFog.2 mph100%29.89 "Hg0 mi
3:50 am43 °FFog.2 mph100%29.89 "Hg0 mi
3:20 am43 °FFog.3 mph100%29.89 "Hg0 mi
2:50 am43 °FFog.1 mph100%29.89 "Hg0 mi
2:20 am41 °FFog.5 mph100%29.89 "Hg0 mi
1:20 am41 °FFog.2 mph100%29.86 "Hg0 mi
12:50 am39 °FFog.2 mph93%29.86 "Hg0 mi
12:20 am43 °FFog.2 mph93%29.86 "Hg0 mi
11:50 pm
Sun, Dec 9
41 °FFog.1 mph100%29.86 "Hg1 mi
11:20 pm41 °FFog.1 mph100%29.86 "Hg0 mi
10:50 pm43 °FFog.3 mph100%29.86 "Hg0 mi
10:20 pm45 °FFog.3 mph100%29.86 "Hg1 mi
9:50 pm41 °FFog.2 mph100%29.83 "Hg4 mi
9:20 pm45 °FFog.3 mph100%29.83 "HgN/A
8:50 pm48 °FClear.3 mph94%29.83 "Hg10 mi
8:20 pm48 °FClear.5 mph100%29.80 "Hg10 mi
7:50 pm50 °FClear.5 mph94%29.80 "Hg10 mi
7:20 pm48 °FClear.5 mph94%29.80 "Hg10 mi
6:50 pm50 °FClear.3 mph94%29.77 "Hg10 mi
6:20 pm52 °FPassing clouds.3 mph94%29.77 "HgN/A
5:50 pm52 °FPassing clouds.1 mph94%29.77 "HgN/A
5:20 pm54 °FPassing clouds.7 mph94%29.77 "HgN/A
4:50 pm54 °FRain. Passing clouds.2 mph94%29.77 "HgN/A
4:20 pm55 °FScattered clouds.3 mph88%29.77 "HgN/A
Weather by CustomWeather, © 2018

See weather overview